N299EZ KPDX-KPDX

Flight info

Callsign N299EZ
Flight time N/A
Altitude 4500
Route VFR
Aircraft C208/L-DOV/C

Departure

Time 2026-05-08 02:23
Airport Portland International Airport (KPDX)

Arrival

Time N/A
Airport Portland International Airport (KPDX)
Time Latitude Longitude Altitude Speed Heading
2026-05-08 02:07 45.58783 -122.61401 31 ft 0 kts 168°
2026-05-08 02:09 45.58782 -122.61401 31 ft 0 kts 168°
2026-05-08 02:10 45.58762 -122.61390 32 ft 5 kts 148°
2026-05-08 02:10 45.58729 -122.61343 33 ft 8 kts 125°
2026-05-08 02:11 45.58696 -122.61259 33 ft 12 kts 119°
2026-05-08 02:11 45.58662 -122.61126 30 ft 17 kts 84°
2026-05-08 02:11 45.58650 -122.60965 29 ft 13 kts 121°
2026-05-08 02:11 45.58676 -122.60843 28 ft 14 kts 44°
2026-05-08 02:12 45.58754 -122.60733 27 ft 17 kts 45°
2026-05-08 02:12 45.58789 -122.60683 28 ft 0 kts 45°
2026-05-08 02:12 45.58794 -122.60676 28 ft 3 kts 44°
2026-05-08 02:12 45.58819 -122.60642 29 ft 7 kts 44°
2026-05-08 02:13 45.58860 -122.60583 30 ft 9 kts 47°
2026-05-08 02:13 45.58899 -122.60527 30 ft 8 kts 44°
2026-05-08 02:13 45.58921 -122.60497 30 ft 3 kts 45°
2026-05-08 02:13 45.58950 -122.60455 31 ft 7 kts 46°
2026-05-08 02:14 45.58992 -122.60394 33 ft 10 kts 45°
2026-05-08 02:14 45.59046 -122.60317 33 ft 13 kts 45°
2026-05-08 02:14 45.59116 -122.60216 31 ft 15 kts 45°
2026-05-08 02:14 45.59193 -122.60106 30 ft 16 kts 44°
2026-05-08 02:15 45.59276 -122.59989 28 ft 17 kts 43°
2026-05-08 02:15 45.59340 -122.59897 28 ft 0 kts 45°
2026-05-08 02:15 45.59340 -122.59896 28 ft 1 kts 45°
2026-05-08 02:15 45.59361 -122.59867 29 ft 7 kts 49°
2026-05-08 02:16 45.59359 -122.59786 28 ft 11 kts 120°
2026-05-08 02:16 45.59349 -122.59672 26 ft 13 kts 60°
2026-05-08 02:16 45.59354 -122.59560 27 ft 12 kts 118°
2026-05-08 02:16 45.59317 -122.59467 30 ft 10 kts 119°
2026-05-08 02:17 45.59281 -122.59374 31 ft 11 kts 120°
2026-05-08 02:17 45.59240 -122.59272 33 ft 12 kts 119°
2026-05-08 02:17 45.59198 -122.59162 36 ft 13 kts 118°
2026-05-08 02:17 45.59151 -122.59039 35 ft 15 kts 119°
2026-05-08 02:18 45.59095 -122.58900 35 ft 16 kts 119°
2026-05-08 02:18 45.59037 -122.58751 33 ft 18 kts 118°
2026-05-08 02:18 45.58973 -122.58584 31 ft 19 kts 119°
2026-05-08 02:18 45.58907 -122.58415 31 ft 20 kts 118°
2026-05-08 02:19 45.58841 -122.58245 34 ft 19 kts 119°
2026-05-08 02:19 45.58779 -122.58085 36 ft 19 kts 119°
2026-05-08 02:19 45.58715 -122.57923 37 ft 18 kts 118°
2026-05-08 02:19 45.58650 -122.57757 35 ft 20 kts 119°
2026-05-08 02:20 45.58579 -122.57576 33 ft 21 kts 119°
2026-05-08 02:20 45.58505 -122.57385 28 ft 22 kts 120°
2026-05-08 02:20 45.58432 -122.57198 30 ft 21 kts 119°
2026-05-08 02:20 45.58362 -122.57020 31 ft 19 kts 120°
2026-05-08 02:21 45.58346 -122.56915 33 ft 0 kts 60°
2026-05-08 02:21 45.58346 -122.56914 33 ft 2 kts 59°
2026-05-08 02:21 45.58379 -122.56879 32 ft 10 kts 25°
2026-05-08 02:21 45.58444 -122.56904 29 ft 11 kts 301°
2026-05-08 02:22 45.58456 -122.56932 28 ft 0 kts 300°
2026-05-08 02:22 45.58461 -122.56947 28 ft 23 kts 295°
2026-05-08 02:22 45.58708 -122.57584 190 ft 103 kts 298°
2026-05-08 02:23 45.59098 -122.58630 434 ft 123 kts 298°
2026-05-08 02:23 45.59447 -122.59493 516 ft 93 kts 299°
2026-05-08 02:23 45.59786 -122.60401 787 ft 114 kts 298°
2026-05-08 02:23 45.60181 -122.61423 1108 ft 121 kts 298°
2026-05-08 02:24 45.60588 -122.62528 1361 ft 129 kts 296°
2026-05-08 02:24 45.60849 -122.63737 1665 ft 129 kts 279°
2026-05-08 02:24 45.61048 -122.65003 1910 ft 136 kts 301°
2026-05-08 02:24 45.61851 -122.65677 2203 ft 142 kts 352°
2026-05-08 02:25 45.62837 -122.65441 2516 ft 142 kts
2026-05-08 02:25 45.63848 -122.65191 2612 ft 156 kts
2026-05-08 02:25 45.64949 -122.64939 2632 ft 165 kts
2026-05-08 02:25 45.66090 -122.64696 2759 ft 164 kts
2026-05-08 02:26 45.67212 -122.64478 2870 ft 165 kts
2026-05-08 02:26 45.68364 -122.64272 2992 ft 165 kts
2026-05-08 02:26 45.69502 -122.64091 3104 ft 165 kts
2026-05-08 02:26 45.70632 -122.63928 3203 ft 165 kts
2026-05-08 02:27 45.71777 -122.63781 3316 ft 165 kts
2026-05-08 02:27 45.72919 -122.63561 3421 ft 166 kts
2026-05-08 02:27 45.74064 -122.63329 3519 ft 166 kts
2026-05-08 02:27 45.75211 -122.63095 3619 ft 166 kts
2026-05-08 02:28 45.76358 -122.62861 3722 ft 167 kts
2026-05-08 02:28 45.77509 -122.62626 3809 ft 167 kts
2026-05-08 02:28 45.78662 -122.62392 3898 ft 167 kts
2026-05-08 02:28 45.79817 -122.62178 3987 ft 167 kts
2026-05-08 02:29 45.80972 -122.61969 4087 ft 167 kts
2026-05-08 02:29 45.82127 -122.61764 4171 ft 168 kts
2026-05-08 02:29 45.83288 -122.61555 4257 ft 168 kts
2026-05-08 02:29 45.84447 -122.61348 4345 ft 168 kts
2026-05-08 02:30 45.85607 -122.61138 4432 ft 168 kts
2026-05-08 02:30 45.86773 -122.60930 4492 ft 170 kts
2026-05-08 02:30 45.87965 -122.60715 4494 ft 174 kts
2026-05-08 02:30 45.89152 -122.60503 4496 ft 175 kts
2026-05-08 02:31 45.90376 -122.60286 4495 ft 175 kts
2026-05-08 02:31 45.91576 -122.60050 4497 ft 176 kts
2026-05-08 02:31 45.92786 -122.59803 4497 ft 176 kts
2026-05-08 02:31 45.94000 -122.59555 4496 ft 176 kts
2026-05-08 02:32 45.95212 -122.59309 4495 ft 176 kts
2026-05-08 02:32 45.96429 -122.59060 4497 ft 176 kts
2026-05-08 02:32 45.97637 -122.58816 4501 ft 176 kts
2026-05-08 02:32 45.98444 -122.58651 4498 ft 177 kts
2026-05-08 02:33 45.99659 -122.58406 4499 ft 176 kts
2026-05-08 02:33 46.00868 -122.58157 4496 ft 175 kts
2026-05-08 02:33 46.02082 -122.57909 4499 ft 176 kts
2026-05-08 02:33 46.03293 -122.57662 4500 ft 176 kts
2026-05-08 02:34 46.04510 -122.57410 4498 ft 176 kts
2026-05-08 02:34 46.05724 -122.57162 4501 ft 176 kts
2026-05-08 02:34 46.06943 -122.56913 4500 ft 176 kts
2026-05-08 02:34 46.08154 -122.56664 4503 ft 176 kts
2026-05-08 02:35 46.09370 -122.56416 4502 ft 177 kts
2026-05-08 02:35 46.10589 -122.56165 4503 ft 177 kts
2026-05-08 02:35 46.11811 -122.55914 4501 ft 177 kts
2026-05-08 02:35 46.13017 -122.55667 4502 ft 177 kts
2026-05-08 02:36 46.14242 -122.55444 4502 ft 177 kts
2026-05-08 02:36 46.15461 -122.55223 4501 ft 177 kts
2026-05-08 02:36 46.16681 -122.55002 4502 ft 176 kts
2026-05-08 02:36 46.17897 -122.54783 4503 ft 176 kts
2026-05-08 02:37 46.19113 -122.54564 4505 ft 176 kts
2026-05-08 02:37 46.20334 -122.54344 4504 ft 177 kts
2026-05-08 02:37 46.21555 -122.54122 4505 ft 177 kts
2026-05-08 02:37 46.22773 -122.53902 4502 ft 176 kts
2026-05-08 02:38 46.23987 -122.53679 4505 ft 176 kts
2026-05-08 02:38 46.25200 -122.53460 4505 ft 176 kts
2026-05-08 02:38 46.26418 -122.53242 4507 ft 176 kts
2026-05-08 02:38 46.27638 -122.53020 4506 ft 177 kts
2026-05-08 02:39 46.28859 -122.52798 4503 ft 176 kts
2026-05-08 02:39 46.30077 -122.52579 4505 ft 176 kts
2026-05-08 02:39 46.31279 -122.52347 4504 ft 176 kts
2026-05-08 02:39 46.32492 -122.52098 4505 ft 176 kts
2026-05-08 02:40 46.33707 -122.51858 4507 ft 176 kts
2026-05-08 02:40 46.34922 -122.51626 4505 ft 176 kts
2026-05-08 02:40 46.36141 -122.51402 4506 ft 176 kts
2026-05-08 02:40 46.37360 -122.51171 4506 ft 176 kts
2026-05-08 02:41 46.38573 -122.50922 4507 ft 176 kts
2026-05-08 02:41 46.39789 -122.50667 4509 ft 176 kts
2026-05-08 02:41 46.40987 -122.50419 4509 ft 176 kts
2026-05-08 02:41 46.42200 -122.50165 4510 ft 177 kts
2026-05-08 02:42 46.43418 -122.49912 4507 ft 177 kts
2026-05-08 02:42 46.44637 -122.49659 4505 ft 177 kts
2026-05-08 02:42 46.45855 -122.49406 4506 ft 176 kts
2026-05-08 02:42 46.47069 -122.49152 4507 ft 176 kts
2026-05-08 02:43 46.48281 -122.48898 4509 ft 176 kts
2026-05-08 02:43 46.49494 -122.48647 4508 ft 176 kts
2026-05-08 02:43 46.50709 -122.48393 4508 ft 176 kts
2026-05-08 02:43 46.51922 -122.48140 4508 ft 176 kts
2026-05-08 02:44 46.53130 -122.47842 4512 ft 176 kts 14°
2026-05-08 02:44 46.54307 -122.47342 4506 ft 177 kts 16°
2026-05-08 02:44 46.55483 -122.46815 4509 ft 177 kts 16°
2026-05-08 02:44 46.56663 -122.46287 4509 ft 177 kts 17°
2026-05-08 02:45 46.57842 -122.45758 4508 ft 177 kts 16°
2026-05-08 02:45 46.59018 -122.45228 4504 ft 178 kts 17°
2026-05-08 02:45 46.60184 -122.44707 4505 ft 177 kts 16°
2026-05-08 02:45 46.61364 -122.44177 4506 ft 177 kts 17°
2026-05-08 02:46 46.62543 -122.43649 4505 ft 177 kts 16°
2026-05-08 02:46 46.63720 -122.43119 4507 ft 177 kts 17°
2026-05-08 02:46 46.64899 -122.42592 4505 ft 177 kts 17°
2026-05-08 02:46 46.66069 -122.42071 4507 ft 176 kts 17°
2026-05-08 02:47 46.67251 -122.41540 4504 ft 177 kts 16°
2026-05-08 02:47 46.68425 -122.41016 4501 ft 176 kts 16°
2026-05-08 02:47 46.69596 -122.40489 4508 ft 177 kts 17°
2026-05-08 02:47 46.70779 -122.39957 4502 ft 178 kts 16°
2026-05-08 02:48 46.71960 -122.39426 4501 ft 177 kts 17°
2026-05-08 02:48 46.73134 -122.38898 4505 ft 177 kts 17°
2026-05-08 02:48 46.74298 -122.38391 4497 ft 176 kts 13°
2026-05-08 02:48 46.75502 -122.38068 4497 ft 176 kts
2026-05-08 02:49 46.76708 -122.37782 4503 ft 176 kts
2026-05-08 02:49 46.77920 -122.37494 4501 ft 177 kts
2026-05-08 02:49 46.79133 -122.37208 4499 ft 176 kts
2026-05-08 02:49 46.80340 -122.36906 4500 ft 176 kts
2026-05-08 02:50 46.81548 -122.36587 4503 ft 176 kts
2026-05-08 02:50 46.82756 -122.36270 4503 ft 177 kts
2026-05-08 02:50 46.83968 -122.35950 4502 ft 177 kts
2026-05-08 02:50 46.85175 -122.35632 4505 ft 176 kts
2026-05-08 02:51 46.86383 -122.35312 4503 ft 176 kts
2026-05-08 02:51 46.87586 -122.34995 4504 ft 176 kts
2026-05-08 02:51 46.88794 -122.34677 4506 ft 176 kts
2026-05-08 02:51 46.89989 -122.34362 4504 ft 176 kts
2026-05-08 02:52 46.91210 -122.34041 4504 ft 176 kts
2026-05-08 02:52 46.92414 -122.33721 4506 ft 176 kts
2026-05-08 02:52 46.93631 -122.33493 4458 ft 178 kts 357°
2026-05-08 02:52 46.94828 -122.33904 4296 ft 179 kts 324°
2026-05-08 02:53 46.95106 -122.35695 3635 ft 198 kts 260°
2026-05-08 02:53 46.94924 -122.37501 3972 ft 170 kts 274°
2026-05-08 02:53 46.94711 -122.39106 4070 ft 166 kts 238°
2026-05-08 02:53 46.93777 -122.40035 4166 ft 167 kts 193°
2026-05-08 02:54 46.92619 -122.39914 4283 ft 167 kts 171°
2026-05-08 02:54 46.91482 -122.39585 4405 ft 166 kts 171°
2026-05-08 02:54 46.90350 -122.39254 4494 ft 168 kts 171°
2026-05-08 02:54 46.89186 -122.38913 4494 ft 172 kts 171°
2026-05-08 02:55 46.88002 -122.38566 4495 ft 174 kts 170°
2026-05-08 02:55 46.86252 -122.36462 4488 ft 179 kts 100°
2026-05-08 02:55 46.86498 -122.34722 4487 ft 178 kts 57°
2026-05-08 02:56 46.87432 -122.33568 4490 ft 177 kts 31°
2026-05-08 02:56 46.88495 -122.32654 4493 ft 177 kts 30°
2026-05-08 02:56 46.89596 -122.31876 4490 ft 176 kts 12°
2026-05-08 02:56 46.90804 -122.31619 4490 ft 176 kts
2026-05-08 02:57 46.92049 -122.31417 4264 ft 181 kts
2026-05-08 02:57 46.93295 -122.31213 3946 ft 180 kts
2026-05-08 02:57 46.94536 -122.31013 3617 ft 179 kts
2026-05-08 02:57 46.95771 -122.30812 3293 ft 178 kts
2026-05-08 02:58 46.96972 -122.30615 3195 ft 167 kts
2026-05-08 02:58 46.98134 -122.30425 3006 ft 166 kts
2026-05-08 02:58 46.99248 -122.30242 3003 ft 157 kts
2026-05-08 02:58 47.00318 -122.30050 3002 ft 153 kts
2026-05-08 02:59 47.01359 -122.29850 3000 ft 150 kts
2026-05-08 02:59 47.02387 -122.29651 3002 ft 149 kts
2026-05-08 02:59 47.03409 -122.29449 3001 ft 148 kts
2026-05-08 02:59 47.04429 -122.29250 3002 ft 148 kts
2026-05-08 03:00 47.05447 -122.29049 3002 ft 148 kts
2026-05-08 03:00 47.06467 -122.28852 3003 ft 148 kts
2026-05-08 03:00 47.07473 -122.28653 3001 ft 147 kts
2026-05-08 03:00 47.08488 -122.28456 3001 ft 147 kts
2026-05-08 03:01 47.09504 -122.28257 3002 ft 147 kts
2026-05-08 03:01 47.10518 -122.28059 3002 ft 148 kts
2026-05-08 03:01 47.11537 -122.27857 3003 ft 148 kts
2026-05-08 03:01 47.12554 -122.27659 3002 ft 147 kts
2026-05-08 03:02 47.13572 -122.27461 3003 ft 147 kts
2026-05-08 03:02 47.14588 -122.27260 3004 ft 147 kts
2026-05-08 03:02 47.15604 -122.27061 3002 ft 147 kts
2026-05-08 03:02 47.16616 -122.26860 3003 ft 147 kts
2026-05-08 03:03 47.17630 -122.26662 3004 ft 147 kts
2026-05-08 03:03 47.18643 -122.26461 3005 ft 147 kts
2026-05-08 03:03 47.19661 -122.26263 3004 ft 147 kts
2026-05-08 03:03 47.20676 -122.26112 3004 ft 147 kts
2026-05-08 03:04 47.21696 -122.25992 3005 ft 147 kts
2026-05-08 03:04 47.22711 -122.25798 2988 ft 149 kts 20°
2026-05-08 03:04 47.23575 -122.24997 3013 ft 147 kts 36°
2026-05-08 03:04 47.24078 -122.23720 3011 ft 148 kts 71°
2026-05-08 03:05 47.24480 -122.22349 3098 ft 144 kts 54°
2026-05-08 03:05 47.25214 -122.21415 3208 ft 140 kts 29°
2026-05-08 03:05 47.26124 -122.20887 3228 ft 142 kts 14°
2026-05-08 03:05 47.27105 -122.20668 3238 ft 142 kts 355°
2026-05-08 03:06 47.28109 -122.20855 3122 ft 150 kts 354°
2026-05-08 03:06 47.29142 -122.21209 3008 ft 153 kts 344°
2026-05-08 03:06 47.30154 -122.21619 3006 ft 149 kts 344°
2026-05-08 03:06 47.31150 -122.22026 3005 ft 147 kts 343°
2026-05-08 03:07 47.32136 -122.22426 3006 ft 147 kts 344°
2026-05-08 03:07 47.33128 -122.22763 3005 ft 147 kts 358°
2026-05-08 03:07 47.34147 -122.22669 3005 ft 147 kts
2026-05-08 03:07 47.35151 -122.22490 3008 ft 147 kts
2026-05-08 03:08 47.36166 -122.22288 3008 ft 147 kts
2026-05-08 03:08 47.37181 -122.22089 3008 ft 147 kts
2026-05-08 03:08 47.38197 -122.21886 3009 ft 147 kts
2026-05-08 03:08 47.39217 -122.21684 3009 ft 148 kts
2026-05-08 03:09 47.40238 -122.21480 3007 ft 148 kts
2026-05-08 03:09 47.41258 -122.21279 3008 ft 148 kts
2026-05-08 03:09 47.42279 -122.21074 3007 ft 148 kts
2026-05-08 03:09 47.43345 -122.20886 2740 ft 156 kts
2026-05-08 03:10 47.44353 -122.20958 2413 ft 134 kts 355°
2026-05-08 03:10 47.45252 -122.20969 1988 ft 129 kts 356°
2026-05-08 03:10 47.46164 -122.21041 1268 ft 132 kts 356°
2026-05-08 03:10 47.47000 -122.21153 714 ft 107 kts 352°
2026-05-08 03:11 47.47647 -122.21265 326 ft 82 kts 352°
2026-05-08 03:11 47.48172 -122.21369 165 ft 69 kts 352°
2026-05-08 03:11 47.48642 -122.21453 53 ft 65 kts 352°
2026-05-08 03:11 47.49018 -122.21529 34 ft 47 kts 355°
2026-05-08 03:12 47.49233 -122.21561 32 ft 24 kts 353°
2026-05-08 03:12 47.49301 -122.21671 31 ft 12 kts 274°
2026-05-08 03:12 47.49324 -122.21751 31 ft 4 kts 267°
2026-05-08 03:12 47.49324 -122.21757 31 ft 0 kts 267°